Wickham Park Invitation
Cross Country Meet
Wickham Park October 12, 2019
Girls JV #1 Race 10:50 AM 5KM
Official Timepiece "race|result"
Results: www.nestiming.com
Follow us on Facebook @nestiming.com
Place TmPl Name No. Team Gr Time Pace
===== ==== =================== ===== ======================= == ======= =====
1 1 Joelle Solecki 2764 Glastonbury 11 21:41 7:00
2 2 Hadley Raymond 2644 Exeter NH 12 21:52 7:04
3 3 Emily Kowal 2608 East Granby 12 21:54 7:04
4 4 Kathryn McCoy 2538 Concord NH 12 21:55 7:05
5 5 Isabella Acosta 2741 Glastonbury 11 22:12 7:10
6 6 Lucy Bergin 2743 Glastonbury 9 22:15 7:11
7 7 Serena Britos 2526 Concord NH 12 22:23 7:14
8 8 Meadow Gregory 2640 Exeter NH 9 22:33 7:17
9 9 Emily Lauro 2749 Glastonbury 11 22:43 7:20
10 10 Violet Andrews 3147 Parish Hill 10 22:44 7:20
11 11 Quincy Bolduc 2525 Concord NH 10 22:44 7:20
12 12 Holly Souter 2313 Bedford NH 11 22:45 7:21
13 13 Anna Richardson 2645 Exeter NH 11 22:49 7:22
14 14 Madeline Welch 2649 Exeter NH 9 22:50 7:22
15 15 Gracie McHugh 2539 Concord NH 9 22:54 7:24
16 16 Devin Mulready 2752 Glastonbury 12 23:16 7:31
17 17 Ela Goucher 2307 Bedford NH 9 23:32 7:36
18 18 Kayla Rowell 2647 Exeter NH 12 23:38 7:38
19 19 Brittany Leclair 2750 Glastonbury 11 23:41 7:39
20 Abigail Cappiello 2632 Enfield 10 23:47 7:41
21 20 Sierra Dinndorf 2306 Bedford NH 12 23:54 7:43
22 21 Hannah Caiola 2744 Glastonbury 10 23:57 7:44
23 22 Christina Malette 2537 Concord NH 9 24:06 7:47
24 23 Hannah Tracy 3150 Parish Hill 11 24:08 7:47
25 24 Sydney Santiago 2312 Bedford NH 10 24:09 7:48
26 25 Lavinia Nash 2310 Bedford NH 11 24:10 7:48
27 26 Kristie Zator 3151 Parish Hill 10 24:21 7:52
28 27 Gianna Uba 2339 Berlin 10 24:22 7:52
29 Megan Shiring 2756 Glastonbury 12 24:28 7:54
30 28 Eily MacRitchie 2643 Exeter NH 11 24:30 7:54
31 Sarah Ongley 2753 Glastonbury 10 24:30 7:54
32 29 Gabrielle Cotnoir 2305 Bedford NH 9 24:31 7:55
33 30 Briana Rainey 2311 Bedford NH 12 24:34 7:56
34 31 Emma Roski 2331 Berlin 12 24:38 7:57
35 Kirsten Strout 2636 Enfield 10 24:41 7:58
36 32 Nadine Jefremow 2668 Fairfield Ludlowe 10 24:42 7:58
37 Abby Guerette 2308 Bedford NH 11 24:46 8:00
38 Amanda Weddleton 2316 Bedford NH 11 24:47 8:00
39 33 Jamison Belliveau 2604 East Granby 11 24:57 8:03
40 34 Elizabeth Roos 2836 Jonathan Law 9 24:57 8:03
41 Gianna Corbi 2304 Bedford NH 10 24:59 8:04
42 Savannah Vasquez 2939 Maloney 9 24:59 8:04
43 35 Hailey Leonardis 2671 Fairfield Ludlowe 11 25:03 8:05
44 36 Anna Butrimas 2325 Berlin 9 25:05 8:06
45 37 Chaney Savini 2962 Middletown 10 25:20 8:11
46 Lily Mooney 2309 Bedford NH 10 25:26 8:13
47 38 Maria Fiore 2457 Cheshire 10 25:26 8:13
48 Gabby Sustache 2740 Gilbert 10 25:31 8:14
49 Ashka Patel 2621 Ellington 12 25:32 8:14
50 39 Alex Burstell 2662 Fairfield Ludlowe 10 25:34 8:15
51 40 Ashley Cappiello 2606 East Granby 11 25:35 8:15
52 Vivian Krause 2748 Glastonbury 12 25:37 8:16
53 Ava Underwood 2315 Bedford NH 9 25:38 8:16
54 41 Noelle Konior 2327 Berlin 11 25:41 8:18
55 42 Sarah Perrotta 2329 Berlin 11 25:42 8:18
56 Hannah Pierson 2754 Glastonbury 12 25:45 8:19
57 43 Colette Brochu 2527 Concord NH 10 25:48 8:20
58 Carolyn Tierney 2314 Bedford NH 12 25:48 8:20
59 Isabel Ryen 2755 Glastonbury 12 25:49 8:20
60 Alyssa Saponare 2619 East Windsor 12 25:50 8:20
61 44 Kaley Fitzgerald 2534 Concord NH 9 25:51 8:21
62 45 Schyler Wyse 2612 East Granby 12 25:56 8:22
63 Alexandra Xu 2757 Glastonbury 9 25:58 8:23
64 46 Madelynn Hardy 2641 Exeter NH 10 26:06 8:26
65 47 Sarah Capute 2451 Cheshire 11 26:09 8:27
66 48 Kendall Larkin 2779 Griswold 9 26:10 8:27
67 Jessica Mitlehner 2751 Glastonbury 11 26:12 8:27
68 49 Lucia Pino 2835 Jonathan Law 10 26:13 8:28
69 Summer Smith 2819 Joel Barlow 11 26:21 8:30
70 50 Mary Wholean 2922 Lyme-Old Lyme 10 26:21 8:30
71 Caitlyn Healy 2746 Glastonbury 9 26:22 8:31
72 51 Dannah Urban 2447 Bunnell 9 26:24 8:31
73 52 Sara Chute 2273 Avon 11 26:27 8:32
74 Olivia Deanglis 2529 Concord NH 9 26:29 8:33
75 Julong Williams 2808 Immaculate 10 26:32 8:34
76 53 Juliet Keefe 2727 Frontier MA 12 26:34 8:34
77 54 Michalina Centofant 2272 Avon 10 26:35 8:35
78 55 Jenna Hanson 2829 Jonathan Law 11 26:40 8:36
79 56 Anna Trapani 2678 Fairfield Ludlowe 10 26:42 8:37
80 57 Meghan Fenton 2441 Bunnell 10 26:46 8:38
81 Julie Colandrea 2571 Cromwell 11 26:49 8:39
82 Olivia Tebbetts 2623 Ellington 9 26:50 8:40
83 58 Marie Diemand 2725 Frontier MA 12 26:51 8:40
84 Kathryn Barnes 2687 Fitch 11 26:52 8:40
85 Alyssa Eisele 2940 Manchester 9 26:54 8:41
86 59 Madison Derubis 2440 Bunnell 11 26:57 8:42
87 60 Madeline Papcun 2833 Jonathan Law 12 26:59 8:42
88 61 Maggie Bolduc 3148 Parish Hill 12 27:04 8:44
89 62 Jane Capodanno 2664 Fairfield Ludlowe 12 27:08 8:46
90 Juliet Lam 2817 Joel Barlow 11 27:10 8:46
91 63 Skyler Dennie 2724 Frontier MA 11 27:11 8:47
92 64 Laila Bakhshalizade 2777 Griswold 9 27:14 8:47
93 Catherine McDonald 2818 Joel Barlow 11 27:14 8:48
94 65 Juliana Petronio 2464 Cheshire 12 27:15 8:48
95 66 Adrianna Morabito 2780 Griswold 9 27:17 8:49
96 Marcella Slason 2890 Lewis Mills 10 27:18 8:49
97 Suhani Kushyap 2340 Bethel 9 27:19 8:49
98 67 Julia Kawka 2956 Middletown 10 27:19 8:49
99 68 Rachel Diglio 2454 Cheshire 12 27:25 8:51
100 Mia Hankey 2689 Fitch 9 27:29 8:52
101 69 Smith Riley 2705 Foran 9 27:30 8:52
102 Maria Munsey 2540 Concord NH 12 27:33 8:54
103 70 Rachel Fischler 2275 Avon 12 27:34 8:54
104 71 Sophia Manos 2960 Middletown 12 27:37 8:55
105 Alexandra Hamza 2941 Manchester 10 27:43 8:57
106 72 Sophie Fischler 2276 Avon 12 27:49 8:59
107 Jacqueline Doane 2639 Exeter NH 10 27:49 8:59
108 73 Halle Keane 2278 Avon 11 27:54 9:00
109 74 Riley Seaburg 2282 Avon 10 27:54 9:00
110 75 Kelsey Ponce 2444 Bunnell 10 27:54 9:00
111 Delaney Lima 2293 Bacon Academy 11 27:55 9:01
112 Fiona Elliot 2532 Concord NH 9 27:56 9:01
113 Bella Crowell 2291 Bacon Academy 12 27:57 9:01
114 76 Nethra Sundaram 2964 Middletown 9 27:59 9:02
115 Brooke Rodgers 2296 Bacon Academy 9 28:00 9:02
116 77 Lorelei Rich 2611 East Granby 9 28:02 9:03
117 78 Anvi Rakshe 2281 Avon 10 28:04 9:03
118 79 Kayla Lavigne 2416 Bristol Eastern 11 28:09 9:05
119 80 Brynn Nogiec 2328 Berlin 9 28:19 9:09
120 Ellie Whelton 2650 Exeter NH 10 28:34 9:13
121 81 Jocelyn Agostino 2412 Bristol Eastern 9 28:39 9:15
122 82 Megan Moran 2462 Cheshire 11 28:43 9:16
123 83 Nicole Forno 2955 Middletown 11 28:48 9:18
124 84 Blanche Reading 2728 Frontier MA 10 28:55 9:20
125 85 Ivy Glidden 2700 Foran 10 29:01 9:22
126 Isabelle Smith 2932 Maloney 10 29:01 9:22
127 86 Alyssa D'Amato 2954 Middletown 11 29:01 9:22
128 87 Isabella Lenoce 2480 Coginchaug 10 29:12 9:25
129 88 Maggie Rommel 2919 Lyme-Old Lyme 10 29:15 9:26
130 89 Sophia Marinelli 2918 Lyme-Old Lyme 9 29:16 9:27
131 90 Madelyn Burstell 2663 Fairfield Ludlowe 12 29:17 9:27
132 91 Kelly Utreras 2708 Foran 12 29:18 9:27
133 Anna Bousquet 2879 Lewis Mills 12 29:18 9:27
134 92 Alicia Rappleyea 2421 Bristol Eastern 11 29:27 9:30
135 93 Maitreya Fabbro 2667 Fairfield Ludlowe 10 29:29 9:31
136 94 Lindsey Konlian 2830 Jonathan Law 10 29:31 9:32
137 Vidya Rajahraman 2280 Avon 11 29:35 9:33
138 95 Grace Quinn 3149 Parish Hill 9 29:38 9:34
139 96 Marilyn Carucci 2828 Jonathan Law 10 29:38 9:34
140 97 Anna Jani 2701 Foran 12 29:50 9:38
141 Emily Eichner 2880 Lewis Mills 11 29:54 9:39
142 Cadence Brown 2930 Maloney 9 29:55 9:39
143 Lucy Egan 2666 Fairfield Ludlowe 12 30:01 9:41
144 Breanna Wallace 2768 Granby Memorial 10 30:03 9:42
145 98 Amelia McGonigle 2703 Foran 10 30:14 9:46
146 99 Elana Healy 2778 Griswold 9 30:17 9:47
147 100 Miranda Geyda 2459 Cheshire 12 30:25 9:49
148 101 Janice Gao 2414 Bristol Eastern 12 30:36 9:53
149 Elizabeth Galjan 2745 Glastonbury 10 30:40 9:54
150 102 Emma Bass 2916 Lyme-Old Lyme 12 30:41 9:54
151 103 Olivia Avery 2776 Griswold 12 30:42 9:55
152 Holly Warner 2624 Ellington 11 30:46 9:56
153 Lizzy Cappelli 2766 Granby Memorial 12 30:49 9:57
154 104 Melina Betts 2605 East Granby 9 30:52 9:58
155 Makenzie Murphy 2883 Lewis Mills 12 30:54 9:58
156 105 Malia Hanes 2726 Frontier MA 11 30:55 9:59
157 106 Teagan Murawski 2961 Middletown 12 30:56 9:59
158 Yeraliz Salgado-Luc 2369 Bloomfield 11 31:04 10:02
159 107 Camden Delude 2326 Berlin 9 31:06 10:02
160 108 Lauren MacKinnon 2609 East Granby 9 31:07 10:03
161 109 Risa McLaughlin 2442 Bunnell 12 31:21 10:07
162 110 Masha Wallace 2921 Lyme-Old Lyme 11 31:23 10:08
163 Kaitlyn Morano 2610 East Granby 11 31:40 10:13
164 Rayya Burns 2528 Concord NH 10 31:41 10:13
165 111 Carolyn Wheatley 2784 Griswold 11 31:42 10:14
166 112 Brittany Mangiameli 2481 Coginchaug 12 31:47 10:15
167 Madeline Landers 2958 Middletown 10 31:49 10:16
168 113 Molly Marteka 2482 Coginchaug 12 31:52 10:17
169 Graysen Scherer 2690 Fitch 12 32:04 10:21
170 114 Nancy Che 2452 Cheshire 12 32:13 10:24
171 Adele Oprica 2279 Avon 10 32:22 10:27
172 115 Madalena Dipentima 2479 Coginchaug 10 32:30 10:29
173 Hadley St. George-D 2635 Enfield 10 32:51 10:36
174 Riley Gilliland 2688 Fitch 9 32:57 10:38
175 Tehreen Pasha 2463 Cheshire 11 33:00 10:39
176 116 Colleen Mullane 2443 Bunnell 11 33:03 10:40
177 117 Zoe Krueger 2415 Bristol Eastern 12 33:21 10:46
178 Mary Sullivan 2739 Gilbert 9 33:22 10:46
179 Ellie Oakes-Rodgers 2738 Gilbert 12 33:32 10:49
180 118 Quincy Ercanbrack 2699 Foran 10 33:58 10:58
181 Abby Dzuira 2455 Cheshire 12 34:08 11:01
182 Maria Peschko 2342 Bethel 10 34:13 11:02
183 Grace Willis 2637 Enfield 12 34:33 11:09
184 119 Jenna Ulizio 2488 Coginchaug 10 34:40 11:11
185 Danielle Tooker 2965 Middletown 12 34:48 11:14
186 120 Caitlyn Ouellette 2419 Bristol Eastern 10 35:07 11:20
187 121 Evelyn Boyden 2723 Frontier MA 12 35:29 11:27
----------------------------------------------------------------------------
TEAM Results by PLACE
----------------------------------------------------------------------------
1. Glastonbury
1 5 6 9 16 (19) (21) = 37
Joelle Solecki, Isabella Acosta, Lucy Bergin, Emily Lauro, Devin
Mulready, Brittany Leclair, Hannah Caiola
2. Exeter NH
2 8 13 14 18 (28) (46) = 55
Hadley Raymond, Meadow Gregory, Anna Richardson, Madeline Welch, Kayla
Rowell, Eily MacRitchie, Madelynn Hardy
3. Concord NH
4 7 11 15 22 (43) (44) = 59
Kathryn McCoy, Serena Britos, Quincy Bolduc, Gracie McHugh, Christina
Malette, Colette Brochu, Kaley Fitzgerald
4. Bedford NH
12 17 20 24 25 (29) (30) = 98
Holly Souter, Ela Goucher, Sierra Dinndorf, Sydney Santiago, Lavinia
Nash, Gabrielle Cotnoir, Briana Rainey
5. Berlin
27 31 36 41 42 (80)(107) = 177
Gianna Uba, Emma Roski, Anna Butrimas, Noelle Konior, Sarah Perrotta,
Brynn Nogiec, Camden Delude
6. East Granby
3 33 40 45 77 (104)(108) = 198
Emily Kowal, Jamison Belliveau, Ashley Cappiello, Schyler Wyse,
Lorelei Rich, Melina Betts, Lauren MacKinnon
7. Parish Hill
10 23 26 61 95 = 215
Violet Andrews, Hannah Tracy, Kristie Zator, Maggie Bolduc, Grace
Quinn
8. Fairfield Ludlowe
32 35 39 56 62 (90) (93) = 224
Nadine Jefremow, Hailey Leonardis, Alex Burstell, Anna Trapani, Jane
Capodanno, Madelyn Burstell, Maitreya Fabbro
9. Jonathan Law
34 49 55 60 94 (96) = 292
Elizabeth Roos, Lucia Pino, Jenna Hanson, Madeline Papcun, Lindsey
Konlian, Marilyn Carucci
10. Cheshire
38 47 65 68 82 (100)(114) = 300
Maria Fiore, Sarah Capute, Juliana Petronio, Rachel Diglio, Megan
Moran, Miranda Geyda, Nancy Che
11. Avon
52 54 70 72 73 (74) (78) = 321
Sara Chute, Michalina Centofanti, Rachel Fischler, Sophie Fischler,
Halle Keane, Riley Seaburg, Anvi Rakshe
12. Middletown
37 67 71 76 83 (86)(106) = 334
Chaney Savini, Julia Kawka, Sophia Manos, Nethra Sundaram, Nicole
Forno, Alyssa D'Amato, Teagan Murawski
13. Bunnell
51 57 59 75 109 (116) = 351
Dannah Urban, Meghan Fenton, Madison Derubis, Kelsey Ponce, Risa
McLaughlin, Colleen Mullane
14. Frontier MA
53 58 63 84 105 (121) = 363
Juliet Keefe, Marie Diemand, Skyler Dennie, Blanche Reading, Malia
Hanes, Evelyn Boyden
15. Griswold
48 64 66 99 103 (111) = 380
Kendall Larkin, Laila Bakhshalizadeh, Adrianna Morabito, Elana Healy,
Olivia Avery, Carolyn Wheatley
16. Lyme-Old Lyme
50 88 89 102 110 = 439
Mary Wholean, Maggie Rommel, Sophia Marinelli, Emma Bass, Masha
Wallace
17. Foran
69 85 91 97 98 (118) = 440
Smith Riley, Ivy Glidden, Kelly Utreras, Anna Jani, Amelia McGonigle,
Quincy Ercanbrack
18. Bristol Eastern
79 81 92 101 117 (120) = 470
Kayla Lavigne, Jocelyn Agostino, Alicia Rappleyea, Janice Gao, Zoe
Krueger, Caitlyn Ouellette
19. Coginchaug
87 112 113 115 119 = 546
Isabella Lenoce, Brittany Mangiameli, Molly Marteka, Madalena
Dipentima, Jenna Ulizio
----------------------------------------------------------------------------
TEAM Results by TIME
----------------------------------------------------------------------------
1. Glastonbury
21:41 22:12 22:15 22:43 23:16 ( 23:41) ( 23:57) = 1:52:07
Joelle Solecki, Isabella Acosta, Lucy Bergin, Emily Lauro, Devin
Mulready, Brittany Leclair, Hannah Caiola
2. Exeter NH
21:52 22:33 22:49 22:50 23:38 ( 24:30) ( 26:06) = 1:53:42
Hadley Raymond, Meadow Gregory, Anna Richardson, Madeline Welch, Kayla
Rowell, Eily MacRitchie, Madelynn Hardy
3. Concord NH
21:55 22:23 22:44 22:54 24:06 ( 25:48) ( 25:51) = 1:54:02
Kathryn McCoy, Serena Britos, Quincy Bolduc, Gracie McHugh, Christina
Malette, Colette Brochu, Kaley Fitzgerald
4. Bedford NH
22:45 23:32 23:54 24:09 24:10 ( 24:31) ( 24:34) = 1:58:30
Holly Souter, Ela Goucher, Sierra Dinndorf, Sydney Santiago, Lavinia
Nash, Gabrielle Cotnoir, Briana Rainey
5. Berlin
24:22 24:38 25:05 25:41 25:42 ( 28:19) ( 31:06) = 2:05:28
Gianna Uba, Emma Roski, Anna Butrimas, Noelle Konior, Sarah Perrotta,
Brynn Nogiec, Camden Delude
6. East Granby
21:54 24:57 25:35 25:56 28:02 ( 30:52) ( 31:07) = 2:06:24
Emily Kowal, Jamison Belliveau, Ashley Cappiello, Schyler Wyse,
Lorelei Rich, Melina Betts, Lauren MacKinnon
7. Parish Hill
22:44 24:08 24:21 27:04 29:38 = 2:07:55
Violet Andrews, Hannah Tracy, Kristie Zator, Maggie Bolduc, Grace
Quinn
8. Fairfield Ludlowe
24:42 25:03 25:34 26:42 27:08 ( 29:17) ( 29:29) = 2:09:09
Nadine Jefremow, Hailey Leonardis, Alex Burstell, Anna Trapani, Jane
Capodanno, Madelyn Burstell, Maitreya Fabbro
9. Jonathan Law
24:57 26:13 26:40 26:59 29:31 ( 29:38) = 2:14:20
Elizabeth Roos, Lucia Pino, Jenna Hanson, Madeline Papcun, Lindsey
Konlian, Marilyn Carucci
10. Cheshire
25:26 26:09 27:15 27:25 28:43 ( 30:25) ( 32:13) = 2:14:58
Maria Fiore, Sarah Capute, Juliana Petronio, Rachel Diglio, Megan
Moran, Miranda Geyda, Nancy Che
11. Avon
26:27 26:35 27:34 27:49 27:54 ( 27:54) ( 28:04) = 2:16:19
Sara Chute, Michalina Centofanti, Rachel Fischler, Sophie Fischler,
Halle Keane, Riley Seaburg, Anvi Rakshe
12. Middletown
25:20 27:19 27:37 27:59 28:48 ( 29:01) ( 30:56) = 2:17:03
Chaney Savini, Julia Kawka, Sophia Manos, Nethra Sundaram, Nicole
Forno, Alyssa D'Amato, Teagan Murawski
13. Bunnell
26:24 26:46 26:57 27:54 31:21 ( 33:03) = 2:19:22
Dannah Urban, Meghan Fenton, Madison Derubis, Kelsey Ponce, Risa
McLaughlin, Colleen Mullane
14. Frontier MA
26:34 26:51 27:11 28:55 30:55 ( 35:29) = 2:20:26
Juliet Keefe, Marie Diemand, Skyler Dennie, Blanche Reading, Malia
Hanes, Evelyn Boyden
15. Griswold
26:10 27:14 27:17 30:17 30:42 ( 31:42) = 2:21:40
Kendall Larkin, Laila Bakhshalizadeh, Adrianna Morabito, Elana Healy,
Olivia Avery, Carolyn Wheatley
16. Foran
27:30 29:01 29:18 29:50 30:14 ( 33:58) = 2:25:53
Smith Riley, Ivy Glidden, Kelly Utreras, Anna Jani, Amelia McGonigle,
Quincy Ercanbrack
17. Lyme-Old Lyme
26:21 29:15 29:16 30:41 31:23 = 2:26:56
Mary Wholean, Maggie Rommel, Sophia Marinelli, Emma Bass, Masha
Wallace
18. Bristol Eastern
28:09 28:39 29:27 30:36 33:21 ( 35:07) = 2:30:12
Kayla Lavigne, Jocelyn Agostino, Alicia Rappleyea, Janice Gao, Zoe
Krueger, Caitlyn Ouellette
19. Coginchaug
29:12 31:47 31:52 32:30 34:40 = 2:40:01
Isabella Lenoce, Brittany Mangiameli, Molly Marteka, Madalena
Dipentima, Jenna Ulizio